EW7833 Weather Reports


time (UTC)temp
F
wind
direction
speed
knots
gust
knots
rain 1hr
in
rain 24hr
in
rain mn
in
humidity
%
barometer
mb
20260507231522 45 273 0.0 9.6 0.00 0.00 0.00 62 1010.8
20260507230019 45 276 4.3 9.6 0.00 0.00 0.00 57 1010.9
20260507224519 45 267 5.2 8.7 0.00 0.00 0.00 56 1010.9
20260507223017 45 269 3.5 11.3 0.00 0.00 0.00 58 1010.9
20260507221517 45 285 6.1 11.3 0.00 0.00 0.00 63 1011.0
20260507220016 45 267 7.8 13.9 0.00 0.00 0.00 59 1011.0
20260507214516 46 273 9.6 13.9 0.00 0.00 0.00 57 1011.0
20260507213022 46 292 7.8 13.9 0.00 0.00 0.00 56 1010.9
20260507211515 47 271 4.3 14.8 0.00 0.00 0.00 52 1010.9
20260507210014 46 257 9.6 15.6 0.00 0.00 0.00 50 1010.8
20260507204513 47 271 12.2 17.4 0.00 0.00 0.00 52 1010.8
20260507203016 47 263 13.0 15.6 0.00 0.00 0.00 54 1010.9
20260507201509 47 271 7.0 11.3 0.00 0.00 0.00 55 1010.9
20260507200008 46 247 4.3 11.3 0.00 0.00 0.00 58 1010.9
20260507194510 46 265 7.0 11.3 0.00 0.00 0.00 59 1011.0
20260507193002 46 278 7.8 13.0 0.00 0.00 0.00 58 1011.2
20260507191600 45 268 9.6 13.0 0.00 0.00 0.00 59 1011.3
20260507184557 45 272 6.1 13.9 0.00 0.00 0.00 59 1011.5
20260507183057 45 284 9.6 13.9 0.00 0.00 0.00 59 1011.5
20260507181555 46 260 7.8 13.0 0.00 0.00 0.00 60 1011.7
20260507180054 45 262 9.6 13.9 0.00 0.00 0.00 58 1011.8
20260507174551 45 266 9.6 13.0 0.00 0.00 0.00 62 1011.9
20260507173123 45 278 9.6 13.0 0.00 0.00 0.00 61 1012.1
20260507171545 44 272 8.7 12.2 0.00 0.00 0.00 63 1012.2
20260507170047 44 260 7.8 13.0 0.00 0.00 0.00 64 1012.5
20260507164542 44 269 7.8 12.2 0.00 0.00 0.00 64 1012.6
20260507163041 44 271 8.7 13.9 0.00 0.00 0.00 64 1012.6
20260507161545 44 274 7.0 10.4 0.00 0.00 0.00 65 1012.7
20260507160038 44 264 7.0 11.3 0.00 0.00 0.00 66 1012.8
20260507154533 43 262 6.1 8.7 0.00 0.00 0.00 72 1012.9
20260507153033 43 273 6.1 9.6 0.00 0.00 0.00 72 1012.9
20260507151532 43 272 6.1 8.7 0.00 0.00 0.00 72 1012.9
20260507150037 42 261 6.1 8.7 0.00 0.00 0.00 71 1013.1
20260507144526 42 266 4.3 7.0 0.00 0.00 0.00 74 1013.1
20260507143025 41 276 2.6 6.1 0.00 0.00 0.00 76 1013.0
20260507141524 41 270 3.5 7.0 0.00 0.00 0.00 77 1013.1
20260507140020 40 263 3.5 6.1 0.00 0.00 0.00 78 1013.1
20260507134519 40 248 3.5 7.0 0.00 0.00 0.00 79 1013.1
20260507133020 39 263 1.7 5.2 0.00 0.00 0.00 81 1013.0
20260507131516 39 259 2.6 4.3 0.00 0.00 0.00 83 1013.0
20260507130015 39 274 0.9 4.3 0.00 0.00 0.00 83 1013.0
20260507124514 38 255 3.5 6.1 0.00 0.00 0.00 83 1012.9
20260507123014 37 252 2.6 5.2 0.00 0.00 0.00 85 1012.8
20260507121512 36 234 2.6 5.2 0.00 0.00 0.00 84 1013.0
20260507120011 35 248 0.0 2.6 0.00 0.00 0.00 86 1012.9
20260507114510 34 242 0.0 0.0 0.00 0.00 0.00 91 1012.7
20260507113012 32 115 0.0 0.0 0.00 0.00 0.00 92 1012.6
20260507111510 30 115 0.0 0.0 0.00 0.00 0.00 92 1012.6
20260507110009 29 115 0.0 0.0 0.00 0.00 0.00 92 1012.5
20260507104508 28 115 0.0 0.0 0.00 0.00 0.00 91 1012.4
20260507103007 29 115 0.0 0.0 0.00 0.00 0.00 91 1012.4
20260507101507 29 115 0.0 0.0 0.00 0.00 0.00 91 1012.4
20260507100006 29 115 0.0 0.0 0.00 0.00 0.00 90 1012.4
20260507094504 30 115 0.0 0.0 0.00 0.00 0.00 90 1012.4
20260507093005 30 116 0.0 0.0 0.00 0.00 0.00 91 1012.6
20260507091505 30 116 0.0 0.0 0.00 0.00 0.00 91 1012.7
20260507090007 30 101 0.0 0.0 0.00 0.00 0.00 91 1012.7
20260507084602 30 101 0.0 0.0 0.00 0.00 0.00 92 1012.7
20260507083100 29 102 0.0 0.0 0.00 0.00 0.00 91 1012.7
20260507081600 29 101 0.0 0.0 0.00 0.00 0.00 91 1012.8
20260507080059 28 101 0.0 0.0 0.00 0.00 0.00 91 1012.8
20260507074558 28 101 0.0 0.0 0.00 0.00 0.00 90 1012.9
20260507073104 29 101 0.0 0.0 0.00 0.00 0.00 90 1013.0
20260507071554 29 102 0.0 0.0 0.00 0.00 0.00 90 1013.1
20260507070058 29 102 0.0 0.0 0.00 0.00 0.00 89 1013.1
20260507064554 29 102 0.0 0.0 0.00 0.00 0.00 90 1013.4
20260507063049 29 102 0.0 0.0 0.00 0.00 0.00 89 1013.4
20260507061548 29 102 0.0 0.0 0.00 0.00 0.00 88 1013.4
20260507060048 30 101 0.0 0.0 0.00 0.00 0.00 87 1013.4
20260507054543 31 101 0.0 0.0 0.00 0.00 0.00 87 1013.5
20260507053041 31 102 0.0 0.0 0.00 0.00 0.00 84 1013.5
20260507051536 33 101 0.0 0.0 0.00 0.00 0.00 80 1013.6
20260507050033 36 252 0.0 2.6 0.00 0.00 0.00 75 1013.6
20260507044528 38 253 0.0 2.6 0.00 0.00 0.00 71 1013.7
20260507043026 38 275 1.7 3.5 0.00 0.00 0.00 72 1013.8
20260507041524 38 259 0.0 1.7 0.00 0.00 0.00 73 1013.9
20260507040021 39 272 1.7 4.3 0.00 0.00 0.00 72 1013.9
20260507034522 39 276 1.7 4.3 0.00 0.00 0.00 74 1013.9
20260507033028 39 257 1.7 3.5 0.00 0.00 0.00 71 1013.8
20260507031524 40 254 0.9 3.5 0.00 0.00 0.00 69 1013.9
20260507030019 40 262 0.9 4.3 0.00 0.00 0.00 67 1013.7
20260507024516 40 264 0.9 3.5 0.00 0.00 0.00 66 1013.8
20260507023016 40 244 0.0 3.5 0.00 0.00 0.00 66 1013.8
20260507021515 40 250 1.7 4.3 0.00 0.00 0.00 61 1013.7
20260507020017 40 267 1.7 3.5 0.00 0.00 0.00 62 1013.7
20260507014513 41 264 2.6 3.5 0.00 0.00 0.00 64 1013.7
20260507013011 41 275 1.7 3.5 0.00 0.00 0.00 63 1013.5
20260507011524 41 260 2.6 5.2 0.00 0.00 0.00 62 1013.4
20260507010010 41 263 0.0 2.6 0.00 0.00 0.00 62 1013.3
20260507004508 41 275 0.0 4.3 0.00 0.00 0.00 63 1013.4
20260507003008 41 271 2.6 7.0 0.00 0.00 0.00 60 1013.2
20260507001509 42 256 0.0 7.8 0.00 0.00 0.00 61 1013.2
20260507000007 42 254 1.7 7.0 0.00 0.00 0.00 64 1013.2
20260506234506 42 248 1.7 7.0 0.00 0.00 0.00 65 1013.2
20260506233005 42 278 5.2 8.7 0.00 0.00 0.00 64 1013.2